[[{"header":{"parameterUnit":"m.s-1","parameterCategory":1,"la1":30.2991,"la2":30.254,"lo1":-89.0895,"lo2":-89.0444,"dy":0.0017,"dx":0.0017,"nx":28,"ny":28,"refTime":"2024-08-25T03:00:00:Z","depth":0,"parameterNumber":2,"parameterNumberName":"U-component_of_WINDS"},"data":[0,0,0,0,0,0,0,0,0,0,0,0,0,0,0,0,0,0,0,0,0,0,0,0,0,0,0,0,0,0,0,0,0,0,0,0,0,0,0,0,0,0,0,0,0,0,0,0,0,0,0,0,0,0,0,0,0,0,-5.6989,-5.699,0,-5.7086,-5.7087,-5.7088,-5.7035,-5.7032,-5.703,-5.7027,-5.7123,-5.7128,-5.7133,0,0,0,0,0,0,0,0,0,0,0,0,0,-5.6754,-5.6758,-5.6989,-5.699,-5.6991,-5.7086,-5.7087,-5.7089,-5.7035,-5.7032,-5.7029,-5.7026,-5.7121,-5.7127,-5.7133,0,0,0,0,0,0,0,0,0,0,0,0,0,-5.6854,-5.676,-5.6989,-5.6976,-5.6976,-5.7086,-5.7087,-5.7089,-5.7036,-5.7032,-5.7028,-5.7024,-5.7119,-5.7127,-5.7134,-5.7261,0,0,-5.7157,-5.7161,0,0,0,0,0,0,0,0,-5.6848,-5.6862,-5.6977,-5.6977,-5.6977,-5.7044,-5.7039,-5.7146,-5.7037,-5.7013,-5.7027,-5.7022,-5.71,-5.7109,-5.7136,-5.7265,-5.7269,-5.7158,-5.7163,-5.7166,-5.7168,0,0,0,0,0,0,0,-5.6841,-5.6858,-5.7027,-5.6978,-5.6979,-5.6965,-5.6974,-5.7059,-5.7077,-5.7015,-5.7011,-5.7024,-5.7099,-5.7129,-5.7138,-5.7271,-5.7158,-5.7164,-5.7169,-5.7172,-5.7509,-5.7513,0,0,0,0,0,0,-5.6836,-5.6852,-5.7024,-5.703,-5.6902,-5.6972,-5.6983,-5.7027,-5.7076,-5.708,-5.7027,-5.7021,-5.7118,-5.7129,-5.7141,-5.7292,-5.7166,-5.7173,-5.7177,-5.7505,-5.751,-5.7515,0,0,0,0,0,0,-5.6831,-5.6851,-5.702,-5.694,-5.6961,-5.698,-5.703,-5.7031,-5.706,-5.7086,-5.7088,-5.7054,-5.7115,-5.713,-5.7232,-5.7295,-5.7176,-5.7183,-5.7499,-5.7506,-5.7512,-5.7596,0,0,0,0,0,0,-5.6824,-5.685,-5.6899,-5.6942,-5.6965,-5.7111,-5.7034,-5.7036,-5.7074,-5.7067,-5.7112,-5.7115,-5.7113,-5.7221,-5.7239,-5.7303,-5.7189,-5.7494,-5.7502,-5.751,-5.7588,-5.7605,-5.762,0,0,0,0,0,-5.6816,-5.6918,-5.6902,-5.6923,-5.7027,-5.7114,-5.7127,-5.7124,-5.7079,-5.7128,-5.7144,-5.7114,-5.7285,-5.7231,-5.7252,-5.7319,-5.749,-5.75,-5.751,-5.7581,-5.7602,-5.7619,0,0,0,0,0,0,-5.688,-5.6923,-5.6906,-5.7025,-5.7067,-5.7105,-5.7167,-5.7146,-5.72,-5.7191,-5.7183,-5.7194,-5.73,-5.7319,-5.7259,-5.7444,-5.738,-5.7395,-5.7428,-5.7448,-5.7463,-5.7456,-5.7195,0,0,0,0,0,-5.6908,-5.6977,-5.701,-5.7112,-5.7134,-5.7147,-5.7185,-5.7179,-5.7221,-5.7238,-5.7262,-5.7303,-5.7366,-5.7408,-5.7467,-5.7591,-5.76,-5.7647,-5.7663,-5.7676,-5.7688,-5.7755,-5.7777,-5.7547,-5.7547,-5.7547,0,0,-5.6967,-5.6999,-5.7042,-5.7126,-5.7157,-5.7227,-5.7162,-5.7239,-5.7291,-5.7249,-5.7347,-5.7366,-5.7411,-5.7525,-5.7576,-5.7544,-5.7754,-5.7688,-5.7698,-5.7704,-5.7768,-5.779,-5.7809,-5.7554,-5.7553,-5.7552,0,0,-5.711,-5.7141,-5.7229,-5.7263,-5.7312,-5.732,-5.7342,-5.7384,-5.7395,-5.7494,-5.7464,-5.7525,-5.7634,-5.7668,-5.7699,-5.7856,-5.783,-5.7876,-5.7958,-5.8024,-5.8042,-5.8058,-5.8114,-5.8134,-5.7888,-5.7888,-5.7888,0,-5.7176,-5.7282,-5.7277,-5.7357,-5.7394,-5.7362,-5.7451,-5.7483,-5.7548,-5.7575,-5.7539,-5.7676,-5.7704,-5.7825,-5.7863,-5.789,-5.7914,-5.787,-5.804,-5.8056,-5.8071,-5.8124,-5.8145,-5.7893,-5.7893,-5.7892,-5.7892,0,-5.7361,-5.7435,-5.75,-5.7566,-5.7611,-5.7695,-5.7702,-5.7748,-5.7738,-5.775,-5.785,-5.7883,-5.7949,-5.7977,-5.7967,-5.8097,-5.8076,-5.8041,-5.7976,-5.8098,-5.8148,-5.8168,-5.7901,-5.7899,-5.7898,-5.7896,0,0,-5.7547,-5.761,-5.7634,-5.7664,-5.7716,-5.7772,-5.7855,-5.7921,-5.796,-5.8006,-5.8075,-5.8168,-5.8136,-5.8172,-5.8166,-5.8223,-5.8346,-5.818,-5.8181,-5.821,-5.8491,-5.8518,-5.8542,-5.8329,-5.8333,-5.8336,-5.8487,0,-5.7693,-5.7839,-5.7837,-5.7972,-5.804,-5.801,-5.8081,-5.8121,-5.8134,-5.8193,-5.8206,-5.8273,-5.8225,-5.8247,-5.8302,-5.8319,-5.8402,-5.8308,-5.8392,-5.8395,-5.8382,-5.8568,-5.8596,-5.8738,-5.8507,-5.851,-5.8513,0,-5.7884,-5.7938,-5.808,-5.8123,-5.8151,-5.8216,-5.8276,-5.8333,-5.8377,-5.8382,-5.8423,-5.8408,-5.8491,-5.8425,-5.8539,-5.8475,-5.8509,-5.8523,-5.8528,-5.8536,-5.8461,-5.8581,-5.8783,-5.8804,-5.8543,-5.8541,-5.8539,0,-5.8006,-5.8114,-5.8213,-5.8239,-5.8292,-5.8338,-5.8362,-5.8402,-5.8441,-5.8494,-5.852,-5.8581,-5.8614,-5.8661,-5.8663,-5.8615,-5.8779,-5.8712,-5.8785,-5.8785,-5.8821,-5.8819,-5.9032,-5.8843,-5.8843,-5.8842,-5.8842,0,-5.817,-5.8257,-5.8269,-5.8329,-5.8427,-5.8424,-5.852,-5.8539,-5.8575,-5.8639,-5.8616,-5.8676,-5.8674,-5.8735,-5.8737,-5.8831,-5.8846,-5.8853,-5.8852,-5.8855,-5.8855,-5.8877,-5.8868,-5.8848,-5.8847,-5.8846,-5.8845,0,-5.8322,-5.8333,-5.8439,-5.8481,-5.8493,-5.8563,-5.8598,-5.8655,-5.8667,-5.8747,-5.8766,-5.8784,-5.8854,-5.8861,-5.8942,-5.8943,-5.9058,-5.9046,-5.9043,-5.9041,-5.9114,-5.9108,-5.9349,-5.9381,-5.9172,-5.9174,-5.9176,0,-5.8426,-5.8494,-5.8543,-5.8584,-5.8611,-5.8678,-5.8719,-5.8718,-5.8762,-5.8817,-5.8868,-5.8937,-5.8991,-5.9105,-5.9125,-5.9187,-5.9177,-5.9257,-5.9186,-5.9187,-5.9178,-5.9174,-5.9181,-5.9271,-5.9273,-5.9275,-5.9277,0,-5.861,-5.8613,-5.8673,-5.8736,-5.8786,-5.8835,-5.8881,-5.8916,-5.8921,-5.8971,-5.9043,-5.9086,-5.917,-5.9238,-5.9299,-5.9322,-5.9301,-5.9299,-5.932,-5.9323,-5.9319,-5.9322,-5.9081,-5.9294,-5.9292,-5.9291,-5.929,-5.9289,-5.8742,-5.88,-5.8844,-5.8913,-5.8947,-5.8991,-5.9048,-5.9067,-5.9127,-5.9196,-5.9192,-5.9272,-5.9314,-5.9394,-5.9422,-5.9484,-5.9457,-5.9487,-5.9494,-5.9501,-5.9509,-5.9309,-5.9496,-5.9495,-5.9495,-5.9494,-5.9494,0,-5.8925,-5.8952,-5.9015,-5.9081,-5.9134,-5.911,-5.916,-5.9206,-5.9277,-5.9319,-5.9374,-5.9457,-5.9523,-5.9548,-5.9613,-5.9658,-5.9649,-5.9675,-5.9671,-5.9677,-5.9529,-5.9506,-5.968,-5.968,-5.968,-5.968,-5.968,-5.968,-5.9026,-5.9124,-5.9132,-5.9246,-5.9272,-5.9352,-5.9382,-5.9422,-5.9455,-5.955,-5.9605,-5.9622,-5.9657,-5.9724,-5.9783,-5.9789,-5.9814,-5.9843,-5.9845,-5.9706,-5.9687,-5.9669,-5.9647,-5.9849,-5.9849,-5.9987,-5.9988,-5.9989]},{"header":{"parameterUnit":"m.s-1","parameterCategory":1,"la1":30.2991,"la2":30.254,"lo1":-89.0895,"lo2":-89.0444,"dy":0.0017,"dx":0.0017,"nx":28,"ny":28,"refTime":"2024-08-25T03:00:00:Z","depth":0,"parameterNumber":3,"parameterNumberName":"V-component_of_WINDS"},"data":[0,0,0,0,0,0,0,0,0,0,0,0,0,0,0,0,0,0,0,0,0,0,0,0,0,0,0,0,0,0,0,0,0,0,0,0,0,0,0,0,0,0,0,0,0,0,0,0,0,0,0,0,0,0,0,0,0,0,-0.8024,-0.8023,0,-0.7885,-0.7884,-0.7882,-0.7753,-0.7752,-0.775,-0.7748,-0.7609,-0.7607,-0.7604,0,0,0,0,0,0,0,0,0,0,0,0,0,-0.818,-0.8178,-0.8024,-0.8023,-0.8021,-0.7886,-0.7884,-0.7882,-0.7753,-0.7751,-0.7749,-0.7748,-0.7609,-0.7607,-0.7604,0,0,0,0,0,0,0,0,0,0,0,0,0,-0.8084,-0.8177,-0.8025,-0.794,-0.7931,-0.7886,-0.7884,-0.7881,-0.7754,-0.7751,-0.7749,-0.7747,-0.761,-0.7607,-0.7604,-0.7631,0,0,-0.7594,-0.7592,0,0,0,0,0,0,0,0,-0.809,-0.8078,-0.7955,-0.7946,-0.7936,-0.7834,-0.7887,-0.7798,-0.7754,-0.7821,-0.7748,-0.7746,-0.7686,-0.7676,-0.7655,-0.7625,-0.7619,-0.7593,-0.7591,-0.759,-0.7589,0,0,0,0,0,0,0,-0.8096,-0.8084,-0.7969,-0.7953,-0.7942,-0.791,-0.7894,-0.787,-0.7769,-0.7815,-0.7806,-0.7791,-0.768,-0.7659,-0.7651,-0.7617,-0.7593,-0.759,-0.7588,-0.7587,-0.7602,-0.7604,0,0,0,0,0,0,-0.8116,-0.809,-0.7974,-0.7965,-0.8008,-0.7909,-0.7891,-0.7869,-0.7769,-0.7751,-0.7793,-0.7785,-0.7666,-0.7655,-0.7646,-0.7671,-0.759,-0.7587,-0.7585,-0.7599,-0.7602,-0.7605,0,0,0,0,0,0,-0.812,-0.8107,-0.7979,-0.8025,-0.8006,-0.7909,-0.7886,-0.7868,-0.7846,-0.7752,-0.7733,-0.779,-0.7663,-0.765,-0.7636,-0.7665,-0.7585,-0.7582,-0.7596,-0.76,-0.7603,-0.7724,0,0,0,0,0,0,-0.8125,-0.8109,-0.8118,-0.8026,-0.8004,-0.7972,-0.7887,-0.7867,-0.7841,-0.7829,-0.7744,-0.7727,-0.7661,-0.7641,-0.7632,-0.7659,-0.758,-0.7593,-0.7598,-0.7602,-0.7717,-0.7731,-0.7743,0,0,0,0,0,-0.8131,-0.8158,-0.8119,-0.8106,-0.8014,-0.7973,-0.7961,-0.7883,-0.7843,-0.7852,-0.7791,-0.773,-0.7663,-0.7641,-0.763,-0.7656,-0.7591,-0.7597,-0.7602,-0.7711,-0.7728,-0.7743,0,0,0,0,0,0,-0.8256,-0.8144,-0.81,-0.8098,-0.8046,-0.7952,-0.796,-0.7904,-0.7863,-0.7854,-0.776,-0.7741,-0.7738,-0.7695,-0.7672,-0.7677,-0.7619,-0.7622,-0.7705,-0.7721,-0.7734,-0.7745,-0.7577,0,0,0,0,0,-0.8283,-0.826,-0.8163,-0.8171,-0.8147,-0.8059,-0.8038,-0.7982,-0.7925,-0.7903,-0.7841,-0.7788,-0.7755,-0.7735,-0.77,-0.7709,-0.7689,-0.7722,-0.7735,-0.7746,-0.7751,-0.7753,-0.7767,-0.7622,-0.7622,-0.7622,0,0,-0.834,-0.8276,-0.8267,-0.8194,-0.8148,-0.8126,-0.8041,-0.8021,-0.8004,-0.79,-0.7882,-0.7835,-0.777,-0.7768,-0.7764,-0.7732,-0.7786,-0.7753,-0.7763,-0.7761,-0.776,-0.7774,-0.7786,-0.7626,-0.7625,-0.7625,0,0,-0.8432,-0.8381,-0.8382,-0.8336,-0.8266,-0.8207,-0.8208,-0.8121,-0.8086,-0.8066,-0.7988,-0.7966,-0.7911,-0.7868,-0.7839,-0.7915,-0.7857,-0.7906,-0.7975,-0.7979,-0.799,-0.8,-0.8028,-0.8039,-0.791,-0.7911,-0.7911,0,-0.8511,-0.8474,-0.8389,-0.8374,-0.8345,-0.8249,-0.8249,-0.821,-0.8133,-0.8115,-0.808,-0.8009,-0.7958,-0.7945,-0.7964,-0.7943,-0.7941,-0.7916,-0.7995,-0.8004,-0.8012,-0.8037,-0.8048,-0.7917,-0.7916,-0.7916,-0.7915,0,-0.8576,-0.8552,-0.8561,-0.8488,-0.8459,-0.8453,-0.8367,-0.8349,-0.8295,-0.824,-0.8222,-0.8158,-0.8108,-0.81,-0.8048,-0.8079,-0.8062,-0.8013,-0.7952,-0.8034,-0.8056,-0.8065,-0.7926,-0.7924,-0.7922,-0.792,0,0,-0.8744,-0.8623,-0.8628,-0.8594,-0.851,-0.849,-0.8478,-0.8428,-0.8415,-0.8365,-0.8354,-0.8309,-0.8263,-0.823,-0.8172,-0.8175,-0.824,-0.8125,-0.8122,-0.815,-0.8271,-0.831,-0.8323,-0.8201,-0.8202,-0.8203,-0.8277,0,-0.8822,-0.8796,-0.8719,-0.8717,-0.8694,-0.8602,-0.8592,-0.8539,-0.8488,-0.8461,-0.8403,-0.8374,-0.8314,-0.8294,-0.8293,-0.8233,-0.8263,-0.8226,-0.8191,-0.819,-0.8211,-0.8334,-0.8374,-0.8447,-0.8285,-0.8287,-0.8288,0,-0.8911,-0.8866,-0.8861,-0.8778,-0.8765,-0.8758,-0.8706,-0.8681,-0.862,-0.8582,-0.8546,-0.8481,-0.8465,-0.8408,-0.8385,-0.8361,-0.8342,-0.831,-0.8311,-0.8306,-0.8245,-0.8333,-0.8468,-0.848,-0.83,-0.8299,-0.8299,0,-0.9035,-0.8973,-0.8962,-0.8936,-0.8838,-0.8835,-0.8795,-0.8731,-0.8706,-0.8661,-0.8643,-0.8598,-0.8573,-0.8539,-0.8464,-0.8429,-0.845,-0.8386,-0.8418,-0.8421,-0.8428,-0.8429,-0.8563,-0.8414,-0.8414,-0.8414,-0.8413,0,-0.9131,-0.9133,-0.9017,-0.9011,-0.9009,-0.8921,-0.8922,-0.8872,-0.8816,-0.8799,-0.8716,-0.8702,-0.8604,-0.8578,-0.8519,-0.851,-0.8499,-0.8468,-0.8453,-0.8476,-0.8481,-0.8463,-0.8457,-0.8416,-0.8416,-0.8415,-0.8415,0,-0.9271,-0.9193,-0.9175,-0.9084,-0.9061,-0.9064,-0.8986,-0.8977,-0.8919,-0.8899,-0.8889,-0.8799,-0.8765,-0.8687,-0.8632,-0.8592,-0.8598,-0.8569,-0.8619,-0.8609,-0.8646,-0.8644,-0.8775,-0.8788,-0.8631,-0.8632,-0.8633,0,-0.9338,-0.9336,-0.9245,-0.9227,-0.9189,-0.9162,-0.9136,-0.9048,-0.9025,-0.8955,-0.8954,-0.8913,-0.8876,-0.8826,-0.8756,-0.8714,-0.8684,-0.8733,-0.8677,-0.8701,-0.8686,-0.8688,-0.8687,-0.8746,-0.8748,-0.875,-0.8751,0,-0.9466,-0.9427,-0.9392,-0.9345,-0.9316,-0.9274,-0.9228,-0.9218,-0.912,-0.9097,-0.9061,-0.9032,-0.8975,-0.8936,-0.8883,-0.8841,-0.8781,-0.8769,-0.8774,-0.8799,-0.8828,-0.8814,-0.8653,-0.8767,-0.8765,-0.8764,-0.8763,-0.8763,-0.9571,-0.9566,-0.95,-0.9465,-0.942,-0.9379,-0.9366,-0.9307,-0.9275,-0.9221,-0.9172,-0.9141,-0.9079,-0.9001,-0.8964,-0.8939,-0.8908,-0.8915,-0.8917,-0.8921,-0.8932,-0.8831,-0.8929,-0.8928,-0.8927,-0.8927,-0.8927,0,-0.9695,-0.9649,-0.9617,-0.9554,-0.9526,-0.947,-0.9416,-0.9397,-0.937,-0.9317,-0.9282,-0.9241,-0.9202,-0.913,-0.9085,-0.9079,-0.905,-0.907,-0.907,-0.9062,-0.8961,-0.8962,-0.9094,-0.9094,-0.9094,-0.9094,-0.9094,-0.9094,-0.9757,-0.9745,-0.9699,-0.9665,-0.9617,-0.9586,-0.956,-0.9521,-0.9479,-0.9437,-0.9404,-0.9356,-0.9296,-0.9246,-0.9208,-0.9188,-0.9176,-0.9206,-0.9177,-0.9085,-0.9069,-0.9054,-0.9054,-0.9203,-0.9204,-0.9279,-0.928,-0.928]}]]